Tracking 29892 objects as of 21-Nov-2024
HD Live streaming from Space Station
objects crossing your sky now

ASTROCAST-0302

Track ASTROCAST-0302 now!
10-day predictions
ASTROCAST-0302 is classified as:


NORAD ID: 54369
Int'l Code: 2022-158J
Perigee: 439.1 km
Apogee: 448.4 km
Inclination: 97.4 °
Period: 93.3 minutes
Semi major axis: 6814 km
RCS: Unknown
Launch date: November 26, 2022
Source: (SWTZ)
Launch site: SRIHARIKOTA (SRI)

Uplink (MHz):
Downlink (MHz): 1.531GHz
Beacon (MHz):
Mode: FM
Call sign:
Status: Active

Your satellite tracking list
Your tracking list is empty




NASA's NSSDC Master Catalog

Two Line Element Set (TLE):
1 54369U 22158J   24326.11772224  .00032689  00000-0  73574-3 0  9995
2 54369  97.4455  71.5532 0006835 216.1635 143.9151 15.43213165110896
Source of the keplerian elements: AFSPC